• MPC Preparation (Info)

  • MPEC 2001-V59 : 2001 TN41

    The following Minor Planet Electronic Circular may be linked-to from your own Web pages, but must not otherwise be redistributed electronically.

    A form allowing access to any MPEC is at the bottom of this page.


    Read MPEC 2001-V58 Read MPEC 2001-V60


    M.P.E.C. 2001-V59                                Issued 2001 Nov. 14, 20:13 UT
    
         The Minor Planet Electronic Circulars contain information on unusual
             minor planets and routine data on comets.  They are published
       on behalf of Commission 20 of the International Astronomical Union by the
              Minor Planet Center, Smithsonian Astrophysical Observatory,
                              Cambridge, MA 02138, U.S.A.
    
                 Prepared using the Tamkin Foundation Computer Network
    
                                  MPC@CFA.HARVARD.EDU
              URL http://cfa-www.harvard.edu/iau/mpc.html  ISSN 1523-6714
    
                                       2001 TN41
    
    Additional observations:
         K01T41N  C2001 11 11.36033 06 57 42.08 +37 10 59.5          19.1        704
         K01T41N  C2001 11 11.37445 06 57 42.54 +37 11 22.9          18.8        704
         K01T41N  C2001 11 11.38855 06 57 43.07 +37 11 46.2          19.0        704
         K01T41N  C2001 11 11.40285 06 57 43.39 +37 12 11.4          19.0        704
         K01T41N  C2001 11 11.41704 06 57 43.83 +37 12 34.8          19.3        704
         K01T41N  C2001 11 12.35934 06 58 16.98 +37 39 06.0          18.2        704
         K01T41N  C2001 11 12.37361 06 58 17.40 +37 39 31.4          18.5        704
         K01T41N  C2001 11 12.38797 06 58 17.80 +37 39 55.7          18.3        704
         K01T41N  C2001 11 12.40222 06 58 18.48 +37 40 20.4          19.4        704
         K01T41N  C2001 11 12.41649 06 58 18.64 +37 40 44.5          18.6        704
    
    Observer details:
    704 Lincoln Laboratory ETS, New Mexico.  Observers M. Blythe, F. Shelly,
        M. Bezpalko, R. Huber, L. Manguso, S. Adams, J. Piscitelli.  Measurers
        J. Stuart, R. Sayer, J. B. Evans, H. Viggh.  1.0-m f/2.15 reflector + CCD.
    
    Orbital elements:
    2001 TN41
    Epoch 2001 Oct. 18.0 TT = JDT 2452200.5                 MPC
    M 253.96889              (2000.0)            P               Q
    n   0.58059350     Peri.  150.57836     -0.85911109     +0.38395828
    a   1.4230536      Node    55.96514     -0.51177879     -0.64030941
    e   0.3904132      Incl.   24.10018     -0.00325589     -0.66526679
    P   1.70           H   15.9           G   0.15
    From 18 observations 2001 Oct. 14-Nov. 12.
    
    Ephemeris:
    2001 TN41                a,e,i = 1.42, 0.39, 24                  q = 0.8675
    Date    TT    R. A. (2000) Decl.     Delta      r     Elong.  Phase     V
    2001 11 07    06 54.70   +35 16.1    0.898    1.656   122.4    30.4    18.1
    2001 11 17    07 00.39   +39 59.0    0.783    1.610   130.3    27.9    17.6
    2001 11 27    07 00.71   +45 55.7    0.685    1.562   137.6    25.2    17.2
    2001 12 07    06 52.36   +53 03.9    0.606    1.511   142.2    23.6    16.8
    2001 12 17    06 28.96   +60 50.4    0.552    1.457   141.5    24.9    16.6
    2001 12 27    05 40.26   +67 53.9    0.521    1.401   134.9    29.8    16.5
    2002 01 06    04 19.6    +72 22.1    0.511    1.343   125.0    36.8    16.6
    2002 01 16    02 49.7    +73 18.7    0.513    1.283   114.3    44.3    16.7
    2002 01 26    01 45.9    +72 07.1    0.521    1.222   104.4    51.3    16.8
    2002 02 05    01 10.1    +70 35.1    0.526    1.161    95.5    57.7    16.9
    2002 02 15    00 51.28   +69 29.7    0.524    1.101    87.9    63.7    17.0
    2002 02 25    00 40.53   +68 58.7    0.510    1.043    81.4    69.7    17.0
    2002 03 07    00 32.26   +68 48.0    0.482    0.990    75.6    76.2    17.0
    2002 03 17    00 23.04   +68 31.7    0.440    0.943    70.3    83.6    16.9
    2002 03 27    00 11.01   +67 26.2    0.385    0.905    65.0    92.3    16.9
    2002 04 06    23 58.02   +64 13.7    0.319    0.880    59.0   102.9    16.9
    2002 04 16    23 50.30   +56 39.9    0.250    0.868    51.0   116.1    17.1
    2002 04 26    23 53.70   +40 41.3    0.190    0.872    40.9   131.0    17.8
    2002 05 06    00 09.28   +13 03.2    0.161    0.890    39.2   134.2    17.8
    2002 05 16    00 32.95   -15 44.0    0.180    0.922    55.8   114.9    16.5
    2002 05 26    00 59.23   -33 55.2    0.232    0.964    71.3    95.5    16.1
    2002 06 05    01 24.37   -44 07.1    0.293    1.015    81.7    81.7    16.1
    2002 06 15    01 45.89   -50 32.7    0.354    1.070    89.1    71.6    16.3
    2002 06 25    02 02.07   -55 20.2    0.410    1.130    95.2    63.7    16.5
    2002 07 05    02 11.46   -59 27.7    0.461    1.190   100.5    57.1    16.7
    2002 07 15    02 11.64   -63 19.1    0.509    1.251   105.4    51.6    16.8
    2002 07 25    01 58.97   -66 53.0    0.554    1.312   109.8    46.8    17.0
    2002 08 04    01 29.17   -69 48.5    0.601    1.371   113.7    42.7    17.1
    2002 08 14    00 40.8    -71 26.0    0.650    1.428   116.6    39.4    17.3
    2002 08 24    23 43.6    -71 05.0    0.705    1.483   118.5    36.8    17.5
    2002 09 03    22 54.90   -68 44.2    0.768    1.535   119.0    35.1    17.7
    2002 09 13    22 23.24   -64 58.9    0.840    1.585   118.0    34.1    17.9
    2002 09 23    22 06.76   -60 29.8    0.922    1.632   115.8    33.6    18.2
    2002 10 03    22 00.73   -55 45.4    1.014    1.676   112.6    33.5    18.5
    2002 10 13    22 01.56   -51 01.0    1.116    1.717   108.5    33.4    18.7
    2002 10 23    22 06.86   -46 25.1    1.226    1.755   103.9    33.4    19.0
    2002 11 02    22 15.10   -42 01.1    1.344    1.790    98.9    33.2    19.2
    
    Timothy B. Spahr             (C) Copyright 2001 MPC           M.P.E.C. 2001-V59
    

    Read MPEC 2001-V58 Read MPEC 2001-V60


    MPEC number:

    Enter an MPEC number in one of the following forms:

    • 1997-B01 (the full form)
    • J97B01 (the packed version of the full form)
    • B01 (the abbreviated form)